Notices

Please take our survey and provide feedback: https://eccc.sondage-survey.ca/f/LanguageSelection.aspx?s=442ca660-fcf1-47c0-95a9-59707d6fd709

Please note that for the Engineering Climate Datasets, IDF dataset is available through this link.  Intensity-Duration-Frequency (IDF) Files: Includes the latest version of short-duration rainfall Intensity-Duration-Frequency (IDF) statistics in the form of tables and graphs with accompanying documentation for various locations across Canada.  Current IDF files can be accessed through our station finder application or downloaded for each province and territory across Canada.  In addition, historical versions of IDF files are also available for download.  Updates of IDF files are provided approximately every two years depending on the availability of data.   Thank you for your patience as we enhance our systems.

Hourly Data Report for December 01, 2004

SHERBROOKE A
QUEBEC

45°26'00.000" N
71°41'00.000" W
241.40 m
7028124
71610
YSC

Download Data

Hourly Data (December 2004)
Hourly Data Report for December 1, 2004
TIME
LST
Temp Definition
°C
Dew Point Definition
°C
Rel Hum Definition
%
Precip. Amount Definition
mm

Wind Dir Definition
10's deg

Wind Spd Definition
km/h
Visibility Definition
km
Stn Press Definition
kPa
Hmdx Definition


Wind Chill Definition


Weather Definition


00:00 -3.7 -6.4 81   8 7 15.0 98.87   -7  
01:00 -3.2 -6.0 81   8 7 15.0 98.77   -6  
02:00 -2.6 -5.6 80   8 4 15.0 98.62   -4  
03:00 -2.4 -5.2 81   9 6 15.0 98.54   -5  
04:00 -2.1 -5.0 80   9 9 15.0 98.37   -6  
05:00 -1.6 -4.2 82   9 6 8.0 98.24   -4 Snow
06:00 -1.3 -3.0 88   5 7 3.5 98.04   -4 Snow
07:00 -1.3 -2.5 92   7 11 1.0 97.89   -5 Moderate Snow
08:00 -0.7 -1.7 93   7 9 0.8 97.67   -4 Moderate Snow
09:00 0.3 -0.4 95   9 9 1.6 97.42     Snow,Fog
10:00 0.4 -0.4 94   8 11 2.4 97.18     Snow,Fog
11:00 0.8 -0.1 94   7 11 4.8 96.88     Rain,Snow,Fog
12:00 1.6 0.4 92   11 6 19.3 96.62     Rain
13:00 2.4 1.1 91   12 7 16.1 96.35     Rain
14:00 2.6 1.7 94   10 6 19.3 96.10     Rain
15:00 1.8 1.3 96     0 12.9 95.99     Rain
16:00 1.3 0.7 96   27 6 12.9 95.99     Rain
17:00 1.7 1.3 97   25 11 8.0 95.99     Rain,Fog
18:00 2.5 2.4 99   27 32 9.7 96.11     Rain
19:00 0.0 -0.5 96   28 33 2.6 96.42   -7  
20:00 -0.1 -0.8 95   27 24 1.1 96.70   -6  
21:00 -0.1 -0.4 98   28 37 2.1 96.95   -7  
22:00 0.1 -1.6 88   29 32 15.0 97.16      
23:00 0.1 -1.6 88   28 32 15.0 97.33     Snow

Notes on Data Quality.

Legend

  • E = Estimated
  • M = Missing
  • NA = Not Available*
  • [empty] = Indicates an unobserved value
Date modified: